TimeMDT,TemperatureF,Dew PointF,Humidity,Sea Level PressureIn,VisibilityMPH,Wind Direction,Wind SpeedMPH,Gust SpeedMPH,PrecipitationIn,Events,Conditions,WindDirDegrees,DateUTC
12:55 AM,33.1,30.9,92,30.13,10.0,North,4.6,-,N/A,,Clear,360,2012-10-15 06:55:00
1:55 AM,33.1,30.9,92,30.11,10.0,North,5.8,-,N/A,,Clear,360,2012-10-15 07:55:00
2:55 AM,32.0,30.0,92,30.09,10.0,North,6.9,-,N/A,,Clear,10,2012-10-15 08:55:00
3:55 AM,32.0,30.0,92,30.07,10.0,NNE,4.6,-,N/A,,Clear,20,2012-10-15 09:55:00
4:55 AM,32.0,30.0,92,30.05,10.0,North,6.9,-,N/A,,Clear,10,2012-10-15 10:55:00
5:55 AM,30.9,28.9,92,30.06,10.0,North,6.9,-,N/A,,Clear,360,2012-10-15 11:55:00
6:55 AM,30.0,28.9,96,30.10,10.0,North,5.8,-,N/A,,Clear,10,2012-10-15 12:55:00
7:55 AM,35.1,33.1,92,30.07,10.0,North,4.6,-,N/A,,Clear,360,2012-10-15 13:55:00
8:55 AM,48.9,39.9,71,30.05,10.0,North,3.5,-,N/A,,Clear,360,2012-10-15 14:55:00
9:55 AM,60.1,37.0,42,30.00,10.0,Calm,Calm,-,N/A,,Clear,0,2012-10-15 15:55:00
10:55 AM,66.0,33.1,29,29.97,10.0,Calm,Calm,-,N/A,,Clear,0,2012-10-15 16:55:00
11:55 AM,70.0,27.0,20,29.93,10.0,SSW,6.9,-,N/A,,Clear,200,2012-10-15 17:55:00
12:55 PM,72.0,23.0,16,29.89,10.0,SW,3.5,-,N/A,,Clear,220,2012-10-15 18:55:00
1:55 PM,75.0,23.0,14,29.85,10.0,Calm,Calm,-,N/A,,Clear,0,2012-10-15 19:55:00
2:55 PM,75.0,19.0,12,29.83,10.0,SSW,3.5,-,N/A,,Clear,210,2012-10-15 20:55:00
3:55 PM,75.9,19.0,12,29.82,10.0,Calm,Calm,-,N/A,,Clear,0,2012-10-15 21:55:00
4:55 PM,75.9,21.0,13,29.81,10.0,Calm,Calm,-,N/A,,Clear,0,2012-10-15 22:55:00
5:55 PM,69.1,27.0,21,29.83,10.0,SSE,3.5,-,N/A,,Clear,150,2012-10-15 23:55:00
6:55 PM,51.1,34.0,52,29.91,10.0,Calm,Calm,-,N/A,,Clear,0,2012-10-16 00:55:00
7:55 PM,44.1,36.0,73,29.91,10.0,North,5.8,-,N/A,,Clear,350,2012-10-16 01:55:00
8:55 PM,42.1,37.0,82,29.88,10.0,North,5.8,-,N/A,,Clear,350,2012-10-16 02:55:00
9:55 PM,41.0,36.0,82,29.85,10.0,North,6.9,-,N/A,,Clear,350,2012-10-16 03:55:00
10:55 PM,37.9,34.0,86,29.83,10.0,NNW,5.8,-,N/A,,Clear,340,2012-10-16 04:55:00
11:55 PM,37.9,30.9,76,29.83,10.0,NNW,3.5,-,N/A,,Clear,340,2012-10-16 05:55:00